[[{"header":{"parameterUnit":"m.s-1","parameterCategory":1,"la1":30.2991,"la2":30.254,"lo1":-89.0895,"lo2":-89.0444,"dy":0.0017,"dx":0.0017,"nx":28,"ny":28,"refTime":"2025-09-01T03:00:00:Z","depth":0,"parameterNumber":2,"parameterNumberName":"U-component_of_WINDS"},"data":[0,0,0,0,0,0,0,0,0,0,0,0,0,0,0,0,0,0,0,0,0,0,0,0,0,0,0,0,0,0,0,0,0,0,0,0,0,0,0,0,0,0,0,0,0,0,0,0,0,0,0,0,0,0,0,0,0,0,-0.6742,-0.6742,0,-0.6745,-0.6745,-0.6745,-0.6757,-0.6757,-0.6757,-0.6757,-0.676,-0.676,-0.6759,0,0,0,0,0,0,0,0,0,0,0,0,0,-0.6747,-0.6747,-0.6742,-0.6742,-0.6742,-0.6745,-0.6745,-0.6745,-0.6757,-0.6757,-0.6757,-0.6758,-0.676,-0.676,-0.6759,0,0,0,0,0,0,0,0,0,0,0,0,0,-0.6747,-0.6747,-0.6742,-0.6748,-0.6749,-0.6745,-0.6745,-0.6745,-0.6757,-0.6757,-0.6757,-0.6758,-0.676,-0.676,-0.6759,-0.6749,0,0,-0.6759,-0.6758,0,0,0,0,0,0,0,0,-0.6747,-0.6747,-0.6747,-0.6748,-0.6749,-0.6751,-0.6748,-0.6746,-0.6756,-0.6754,-0.6757,-0.6758,-0.6756,-0.6757,-0.6756,-0.6749,-0.675,-0.6758,-0.6758,-0.6758,-0.6758,0,0,0,0,0,0,0,-0.6747,-0.6747,-0.6743,-0.6747,-0.6748,-0.6751,-0.6752,-0.6747,-0.6753,-0.6754,-0.6755,-0.6755,-0.6757,-0.6756,-0.6756,-0.675,-0.6759,-0.6758,-0.6758,-0.6758,-0.6736,-0.6736,0,0,0,0,0,0,-0.6746,-0.6747,-0.6743,-0.6743,-0.6749,-0.6751,-0.6751,-0.675,-0.6753,-0.6754,-0.6755,-0.6755,-0.6757,-0.6757,-0.6756,-0.6745,-0.6758,-0.6758,-0.6758,-0.6736,-0.6736,-0.6735,0,0,0,0,0,0,-0.6746,-0.6746,-0.6743,-0.6745,-0.6745,-0.675,-0.6748,-0.6749,-0.6749,-0.6753,-0.6754,-0.6753,-0.6757,-0.6757,-0.6751,-0.6746,-0.6758,-0.6758,-0.6737,-0.6736,-0.6736,-0.6723,0,0,0,0,0,0,-0.6746,-0.6746,-0.6742,-0.6745,-0.6745,-0.6738,-0.6748,-0.6749,-0.6748,-0.675,-0.6752,-0.6753,-0.6757,-0.6752,-0.6751,-0.6745,-0.6757,-0.6737,-0.6737,-0.6736,-0.6724,-0.6722,-0.672,0,0,0,0,0,-0.6747,-0.6738,-0.6741,-0.6741,-0.674,-0.6737,-0.6737,-0.6742,-0.6748,-0.6744,-0.6747,-0.6753,-0.6746,-0.6751,-0.675,-0.6745,-0.6738,-0.6737,-0.6736,-0.6725,-0.6722,-0.672,0,0,0,0,0,0,-0.6733,-0.6738,-0.6742,-0.6734,-0.6735,-0.6739,-0.6734,-0.674,-0.6739,-0.674,-0.6747,-0.6747,-0.6741,-0.6742,-0.6747,-0.6736,-0.6743,-0.6742,-0.6735,-0.6733,-0.6731,-0.6731,-0.6757,0,0,0,0,0,-0.6729,-0.6727,-0.6731,-0.6724,-0.6724,-0.6729,-0.6728,-0.6732,-0.6733,-0.6734,-0.6736,-0.6737,-0.6736,-0.6734,-0.6733,-0.6724,-0.6725,-0.672,-0.6718,-0.6717,-0.6716,-0.6712,-0.671,-0.6732,-0.6732,-0.6732,0,0,-0.6721,-0.6724,-0.6721,-0.6721,-0.6722,-0.6719,-0.6729,-0.6726,-0.6724,-0.6733,-0.6728,-0.673,-0.6732,-0.6725,-0.6722,-0.6726,-0.671,-0.6716,-0.6714,-0.6714,-0.6711,-0.6709,-0.6707,-0.6732,-0.6732,-0.6732,0,0,-0.6705,-0.6706,-0.6701,-0.6702,-0.6704,-0.6708,-0.6706,-0.671,-0.6711,-0.6707,-0.6714,-0.6712,-0.6709,-0.671,-0.671,-0.6696,-0.6701,-0.6695,-0.6686,-0.6682,-0.668,-0.6679,-0.6674,-0.6672,-0.6694,-0.6694,-0.6694,0,-0.6695,-0.6691,-0.6697,-0.6693,-0.6693,-0.6702,-0.6697,-0.6697,-0.6699,-0.6699,-0.6703,-0.67,-0.6701,-0.6695,-0.6692,-0.6692,-0.6691,-0.6694,-0.668,-0.6679,-0.6677,-0.6673,-0.6671,-0.6693,-0.6693,-0.6693,-0.6693,0,-0.6678,-0.6675,-0.667,-0.6672,-0.6671,-0.6667,-0.6673,-0.6671,-0.6676,-0.6679,-0.6675,-0.6677,-0.6677,-0.6676,-0.668,-0.6671,-0.6673,-0.6679,-0.6687,-0.6674,-0.6671,-0.6669,-0.6692,-0.6692,-0.6693,-0.6693,0,0,-0.6653,-0.6659,-0.6657,-0.6658,-0.6661,-0.6659,-0.6655,-0.6656,-0.6655,-0.6655,-0.6653,-0.665,-0.6656,-0.6656,-0.666,-0.6657,-0.6647,-0.6663,-0.6664,-0.6661,-0.6638,-0.6634,-0.6631,-0.6651,-0.665,-0.665,-0.6638,0,-0.6637,-0.6631,-0.6637,-0.663,-0.6628,-0.6637,-0.6634,-0.6635,-0.6639,-0.6638,-0.6642,-0.664,-0.6647,-0.6647,-0.6645,-0.6649,-0.6642,-0.665,-0.6648,-0.6648,-0.6648,-0.6629,-0.6625,-0.6613,-0.6636,-0.6636,-0.6636,0,-0.6619,-0.6619,-0.6612,-0.6616,-0.6616,-0.6613,-0.6614,-0.6613,-0.6615,-0.6618,-0.6619,-0.6625,-0.6622,-0.663,-0.6626,-0.6631,-0.6631,-0.6633,-0.6633,-0.6633,-0.6641,-0.6629,-0.6609,-0.6607,-0.6633,-0.6633,-0.6634,0,-0.6601,-0.66,-0.6596,-0.6597,-0.6602,-0.66,-0.6602,-0.6605,-0.6605,-0.6606,-0.6606,-0.6607,-0.6607,-0.6608,-0.6614,-0.6619,-0.661,-0.6618,-0.6613,-0.6612,-0.661,-0.661,-0.659,-0.661,-0.661,-0.661,-0.661,0,-0.6584,-0.6579,-0.6588,-0.6585,-0.6581,-0.6588,-0.6583,-0.6586,-0.6589,-0.6587,-0.6595,-0.6594,-0.6602,-0.6601,-0.6606,-0.6603,-0.6603,-0.6605,-0.6607,-0.6605,-0.6604,-0.6605,-0.6606,-0.6609,-0.6609,-0.661,-0.661,0,-0.6563,-0.6569,-0.6565,-0.6571,-0.6572,-0.6569,-0.6574,-0.6572,-0.6576,-0.6574,-0.6574,-0.6581,-0.658,-0.6587,-0.6588,-0.6591,-0.6586,-0.6589,-0.6585,-0.6586,-0.658,-0.6581,-0.6559,-0.6557,-0.6578,-0.6578,-0.6578,0,-0.6552,-0.6548,-0.6554,-0.6554,-0.6555,-0.6554,-0.6555,-0.6562,-0.6562,-0.6566,-0.6564,-0.6564,-0.6565,-0.6564,-0.657,-0.6571,-0.6574,-0.6566,-0.6574,-0.6572,-0.6574,-0.6574,-0.6574,-0.6565,-0.6564,-0.6564,-0.6564,0,-0.6531,-0.6534,-0.6534,-0.6535,-0.6536,-0.6537,-0.6539,-0.6538,-0.6547,-0.6546,-0.6547,-0.6547,-0.6549,-0.6549,-0.6552,-0.6554,-0.6561,-0.6562,-0.656,-0.6558,-0.6556,-0.6558,-0.6581,-0.6562,-0.6562,-0.6562,-0.6562,-0.6562,-0.6514,-0.6512,-0.6516,-0.6516,-0.6519,-0.652,-0.6519,-0.6524,-0.6524,-0.6526,-0.653,-0.653,-0.6534,-0.6538,-0.654,-0.654,-0.6544,-0.6542,-0.6541,-0.6541,-0.654,-0.6556,-0.654,-0.654,-0.654,-0.6541,-0.6541,0,-0.6494,-0.6497,-0.6497,-0.65,-0.65,-0.6507,-0.6509,-0.6509,-0.6509,-0.6512,-0.6513,-0.6514,-0.6515,-0.652,-0.6522,-0.6521,-0.6524,-0.6521,-0.6522,-0.6522,-0.6536,-0.6537,-0.6519,-0.6519,-0.6519,-0.6519,-0.6519,-0.6519,-0.6483,-0.648,-0.6484,-0.6483,-0.6486,-0.6486,-0.6487,-0.6489,-0.6491,-0.6492,-0.6493,-0.6497,-0.6501,-0.6504,-0.6505,-0.6507,-0.6507,-0.6504,-0.6506,-0.6519,-0.6521,-0.6523,-0.6524,-0.6504,-0.6504,-0.6492,-0.6492,-0.6492]},{"header":{"parameterUnit":"m.s-1","parameterCategory":1,"la1":30.2991,"la2":30.254,"lo1":-89.0895,"lo2":-89.0444,"dy":0.0017,"dx":0.0017,"nx":28,"ny":28,"refTime":"2025-09-01T03:00:00:Z","depth":0,"parameterNumber":3,"parameterNumberName":"V-component_of_WINDS"},"data":[0,0,0,0,0,0,0,0,0,0,0,0,0,0,0,0,0,0,0,0,0,0,0,0,0,0,0,0,0,0,0,0,0,0,0,0,0,0,0,0,0,0,0,0,0,0,0,0,0,0,0,0,0,0,0,0,0,0,1.1032,1.1032,0,1.1035,1.1035,1.1035,1.1017,1.1016,1.1016,1.1015,1.1019,1.102,1.102,0,0,0,0,0,0,0,0,0,0,0,0,0,1.101,1.101,1.1032,1.1032,1.1032,1.1035,1.1035,1.1035,1.1017,1.1016,1.1016,1.1015,1.1019,1.1019,1.102,0,0,0,0,0,0,0,0,0,0,0,0,0,1.1017,1.101,1.1032,1.1023,1.1022,1.1035,1.1035,1.1035,1.1017,1.1016,1.1015,1.1015,1.1019,1.1019,1.102,1.1042,0,0,1.1023,1.1023,0,0,0,0,0,0,0,0,1.1017,1.1018,1.1024,1.1024,1.1023,1.1025,1.1029,1.1038,1.1017,1.1019,1.1015,1.1014,1.1022,1.1022,1.1025,1.1042,1.1042,1.1023,1.1024,1.1024,1.1024,0,0,0,0,0,0,0,1.1016,1.1018,1.1033,1.1025,1.1024,1.1019,1.1019,1.103,1.1025,1.1019,1.1018,1.1018,1.1021,1.1024,1.1025,1.1042,1.1023,1.1024,1.1024,1.1025,1.1076,1.1077,0,0,0,0,0,0,1.1017,1.1017,1.1033,1.1033,1.1018,1.102,1.102,1.1025,1.1025,1.1024,1.1019,1.1017,1.1023,1.1024,1.1025,1.1048,1.1024,1.1025,1.1025,1.1075,1.1076,1.1077,0,0,0,0,0,0,1.1016,1.1018,1.1033,1.1025,1.1026,1.1021,1.1027,1.1026,1.1028,1.1025,1.1024,1.1023,1.1022,1.1023,1.1037,1.1048,1.1025,1.1026,1.1074,1.1076,1.1077,1.1097,0,0,0,0,0,0,1.1016,1.1018,1.1026,1.1025,1.1027,1.1046,1.1028,1.1026,1.103,1.1028,1.1028,1.1027,1.1022,1.1036,1.1038,1.1049,1.1027,1.1073,1.1075,1.1076,1.1095,1.1099,1.1102,0,0,0,0,0,1.1015,1.1032,1.1027,1.1029,1.1037,1.1046,1.1047,1.1041,1.1031,1.1039,1.1036,1.1027,1.1047,1.1038,1.104,1.1051,1.1073,1.1075,1.1076,1.1094,1.1098,1.1102,0,0,0,0,0,0,1.1035,1.1032,1.1026,1.1043,1.1045,1.1043,1.1053,1.1045,1.105,1.1048,1.104,1.104,1.1055,1.1055,1.1044,1.1072,1.1058,1.1061,1.1071,1.1075,1.1078,1.1077,1.1028,0,0,0,0,0,1.1042,1.1049,1.1047,1.1062,1.1063,1.1058,1.1062,1.1057,1.1058,1.1059,1.1058,1.106,1.1066,1.1071,1.1077,1.1096,1.1095,1.1105,1.1108,1.1111,1.1112,1.1121,1.1125,1.1083,1.1083,1.1083,0,0,1.1055,1.1054,1.106,1.1066,1.1067,1.1075,1.1059,1.1069,1.1074,1.1061,1.1073,1.1072,1.1074,1.109,1.1097,1.109,1.1124,1.1113,1.1115,1.1115,1.1123,1.1127,1.1131,1.1085,1.1084,1.1084,0,0,1.1083,1.1084,1.1096,1.1097,1.1099,1.1095,1.1098,1.1097,1.1096,1.1109,1.1098,1.1105,1.1117,1.1118,1.112,1.1149,1.114,1.1151,1.1167,1.1176,1.1179,1.1182,1.1191,1.1194,1.1153,1.1153,1.1153,0,1.1099,1.1111,1.1104,1.1113,1.1116,1.1104,1.1116,1.1118,1.1121,1.1123,1.1116,1.113,1.113,1.1146,1.1153,1.1156,1.1158,1.115,1.1179,1.1182,1.1185,1.1193,1.1196,1.1155,1.1154,1.1154,1.1154,0,1.113,1.1138,1.1148,1.1151,1.1155,1.1166,1.1161,1.1166,1.116,1.1157,1.117,1.117,1.1175,1.1179,1.1174,1.1194,1.1189,1.1181,1.1167,1.119,1.1197,1.1201,1.1156,1.1156,1.1156,1.1155,0,0,1.117,1.1169,1.1172,1.1173,1.1173,1.1179,1.119,1.1195,1.1199,1.1202,1.121,1.122,1.1212,1.1214,1.121,1.1217,1.1238,1.1208,1.1208,1.1212,1.1258,1.1263,1.1267,1.1233,1.1233,1.1234,1.1257,0,1.1196,1.1213,1.1207,1.1224,1.1231,1.122,1.1229,1.123,1.1228,1.1233,1.1231,1.1238,1.1228,1.1229,1.1236,1.1234,1.1247,1.1232,1.1239,1.1239,1.1237,1.1271,1.1277,1.1299,1.126,1.1261,1.1261,0,1.1228,1.1232,1.125,1.1248,1.1251,1.1259,1.1262,1.1268,1.1269,1.1267,1.127,1.1263,1.1273,1.126,1.1273,1.1263,1.1266,1.1265,1.1266,1.1265,1.1251,1.1269,1.1306,1.1308,1.1266,1.1266,1.1265,0,1.1253,1.1263,1.1274,1.1275,1.1274,1.128,1.128,1.128,1.1283,1.1287,1.1289,1.1293,1.1296,1.1299,1.1294,1.1286,1.1307,1.1294,1.1305,1.1305,1.1308,1.1308,1.1344,1.1313,1.1313,1.1313,1.1313,0,1.1282,1.1293,1.1285,1.1292,1.1304,1.1297,1.1309,1.1308,1.1308,1.1314,1.1306,1.1312,1.1305,1.1311,1.1307,1.1317,1.1319,1.1317,1.1315,1.1317,1.1317,1.1317,1.1315,1.1314,1.1314,1.1314,1.1313,0,1.1311,1.1307,1.1318,1.1316,1.1316,1.1325,1.1323,1.1329,1.1326,1.1335,1.1336,1.1332,1.1338,1.1333,1.1339,1.1337,1.135,1.1347,1.1349,1.1348,1.1358,1.1356,1.1394,1.1398,1.1366,1.1367,1.1367,0,1.1329,1.1337,1.1335,1.1339,1.1339,1.1345,1.1348,1.1342,1.1345,1.1347,1.1352,1.1358,1.1361,1.1371,1.1369,1.1373,1.137,1.1382,1.137,1.1371,1.1368,1.1367,1.1367,1.1384,1.1385,1.1385,1.1385,0,1.136,1.1357,1.1361,1.1365,1.1368,1.1371,1.1373,1.1376,1.137,1.1374,1.138,1.1383,1.1389,1.1394,1.1397,1.1397,1.139,1.139,1.1392,1.1392,1.1393,1.1391,1.1354,1.1388,1.1388,1.1388,1.1388,1.1388,1.1383,1.1389,1.1388,1.1393,1.1394,1.1396,1.1401,1.1399,1.1404,1.1408,1.1404,1.1411,1.1411,1.1415,1.1416,1.1421,1.1416,1.142,1.142,1.1421,1.1421,1.1393,1.1422,1.1422,1.1422,1.1422,1.1422,0,1.1412,1.1411,1.1416,1.1418,1.1422,1.1416,1.1417,1.1421,1.1427,1.1428,1.1431,1.1438,1.1442,1.144,1.1444,1.1449,1.1445,1.145,1.1449,1.1448,1.1427,1.1424,1.1452,1.1452,1.1452,1.1452,1.1452,1.1452,1.1427,1.1437,1.1434,1.1444,1.1443,1.1449,1.1451,1.1452,1.1453,1.146,1.1464,1.1463,1.1462,1.1466,1.147,1.1469,1.147,1.1476,1.1474,1.1453,1.145,1.1447,1.1444,1.1476,1.1476,1.1495,1.1495,1.1495]}]]